Retour au catalogue

STARLINK-32418

ActifCommunicationsVLEO
NORAD 62429·PAYLOAD·🇺🇸 United States

Lancé Dec 23, 2024 depuis Cape Canaveral Space Force Station

Loading…

Prochains Passages (prochaines 24 heures)

TLE

FraisSource: CelesTrak SupGP

Époque: Sep 14, 2026, 20:51 UTC

1 62429C 24249W   26257.86923611 -.00021042  00000+0 -76210-3 0  2578
2 62429  43.0034 325.6333 0001684 272.6720 200.3951 15.27590015    15

Suivez STARLINK-32418 en temps réel avec AllMySat

Download on the App Store